shoulder
new_line
new_line
first
second
third
Al di la della Luna; Beyond the Moon; Astrophotography; Astrofotografia; Danilo Pivato
 
 
         
         
2008 - 2007

Orbital Elements

Epoch 2008 Jan. 15.0 TT = JDT 2454480.5
T 2008 Jan. 27.02282 TT                                                              MPC
q   1.0271342                 (2000.0)                   P                        Q
n   0.07239258         Peri.  207.50653     -0.27030038      -0.50619163
a   5.7017306         Node   270.34153     +0.96276231     -0.13756816
e   0.8198557             Incl.   54.98302     +0.00514267     -0.85137831
P  13.61
Returns in the future: 2021    
 
         
         
2007.12.19
 
         
2007.12.14
2007.12.15
2007.12.19
2007.12.26
         
2007.12.26 LRGB
2007.12.27
2007.12.27 RGB
2007.12.28
2007.12.28 RGB
         
2007.12.29
2007.12.29 RGB
2008.01.01
2008.01.01 RGB
         
         
         
         
         
         

 

       
 
Since: 01/01/2004
 
       
 
Since: 01/11/2010